[Date Prev][Date Next][Thread Prev][Thread Next] - [Date Index][Thread Index][Author Index]
2 Line ISS Keps 5-21
- Subject: [sarex] 2 Line ISS Keps 5-21
- From: "Dave Larsen PhD" <doc@xxxxxxxxxxx>
- Date: Tue, 21 May 2002 02:46:49 -0700
ISS
1 25544U 98067A 02141.24284218 .00030310 00000-0 37755-3 0 4722
2 25544 51.6354 188.4114 0006579 99.1617 26.7026 15.59631396199823
----
Via the sarex mailing list at AMSAT.ORG courtesy of AMSAT-NA.
To unsubscribe, send "unsubscribe sarex" to Majordomo@amsat.org
AMSAT Home